Year,Month,Day,Hour,Minute,Value (Times are PST for temperature in C)
2017,06,25,00,00,18.70
2017,06,25,00,01,18.70
2017,06,25,00,02,18.70
2017,06,25,00,03,18.70
2017,06,25,00,04,18.70
2017,06,25,00,05,18.60
2017,06,25,00,06,18.60
2017,06,25,00,07,18.60
2017,06,25,00,08,18.60
2017,06,25,00,09,18.60
2017,06,25,00,10,18.60
2017,06,25,00,11,18.50
2017,06,25,00,12,18.50
2017,06,25,00,13,18.50
2017,06,25,00,14,18.50
2017,06,25,00,15,18.50
2017,06,25,00,16,18.50
2017,06,25,00,17,18.50
2017,06,25,00,18,18.40
2017,06,25,00,19,18.40
2017,06,25,00,20,18.40
2017,06,25,00,21,18.40
2017,06,25,00,22,18.40
2017,06,25,00,23,18.40
2017,06,25,00,24,18.40
2017,06,25,00,25,18.30
2017,06,25,00,26,18.30
2017,06,25,00,27,18.30
2017,06,25,00,28,18.30
2017,06,25,00,29,18.30
2017,06,25,00,30,18.20
2017,06,25,00,31,18.20
2017,06,25,00,32,18.20
2017,06,25,00,33,18.20
2017,06,25,00,34,18.20
2017,06,25,00,35,18.20
2017,06,25,00,36,18.20
2017,06,25,00,37,18.10
2017,06,25,00,38,18.10
2017,06,25,00,39,18.10
2017,06,25,00,40,18.10
2017,06,25,00,41,18.10
2017,06,25,00,42,18.00
2017,06,25,00,43,17.90
2017,06,25,00,44,17.90
2017,06,25,00,45,17.90
2017,06,25,00,46,17.90
2017,06,25,00,47,17.90
2017,06,25,00,48,17.90
2017,06,25,00,49,17.90
2017,06,25,00,50,17.90
2017,06,25,00,51,17.80
2017,06,25,00,52,17.80
2017,06,25,00,53,17.80
2017,06,25,00,54,17.80
2017,06,25,00,55,17.70
2017,06,25,00,56,17.70
2017,06,25,00,57,17.70
2017,06,25,00,58,17.70
2017,06,25,00,59,17.70
2017,06,25,01,00,17.60
2017,06,25,01,01,17.60
2017,06,25,01,02,17.60
2017,06,25,01,03,17.60
2017,06,25,01,04,17.50
2017,06,25,01,05,17.50
2017,06,25,01,06,17.50
2017,06,25,01,07,17.50
2017,06,25,01,08,17.40
2017,06,25,01,09,17.40
2017,06,25,01,10,17.40
2017,06,25,01,11,17.40
2017,06,25,01,12,17.30
2017,06,25,01,13,17.30
2017,06,25,01,14,17.30
2017,06,25,01,15,17.30
2017,06,25,01,16,17.30
2017,06,25,01,17,17.30
2017,06,25,01,18,17.30
2017,06,25,01,19,17.20
2017,06,25,01,20,17.20
2017,06,25,01,21,17.20
2017,06,25,01,22,17.20
2017,06,25,01,23,17.20
2017,06,25,01,24,17.20
2017,06,25,01,25,17.10
2017,06,25,01,26,17.10
2017,06,25,01,27,17.10
2017,06,25,01,28,17.10
2017,06,25,01,29,17.10
2017,06,25,01,30,17.10
2017,06,25,01,31,17.10
2017,06,25,01,32,17.00
2017,06,25,01,33,17.00
2017,06,25,01,34,17.00
2017,06,25,01,35,17.00
2017,06,25,01,36,17.00
2017,06,25,01,37,17.00
2017,06,25,01,38,17.00
2017,06,25,01,39,17.00
2017,06,25,01,40,16.90
2017,06,25,01,41,16.90
2017,06,25,01,42,16.90
2017,06,25,01,43,16.90
2017,06,25,01,44,16.90
2017,06,25,01,45,16.90
2017,06,25,01,46,16.80
2017,06,25,01,47,16.80
2017,06,25,01,48,16.80
2017,06,25,01,49,16.80
2017,06,25,01,50,16.80
2017,06,25,01,51,16.80
2017,06,25,01,52,16.80
2017,06,25,01,53,16.80
2017,06,25,01,54,16.70
2017,06,25,01,55,16.70
2017,06,25,01,56,16.70
2017,06,25,01,57,16.70
2017,06,25,01,58,16.70
2017,06,25,01,59,16.70
2017,06,25,02,00,16.70
2017,06,25,02,01,16.70
2017,06,25,02,02,16.70
2017,06,25,02,03,16.70
2017,06,25,02,04,16.70
2017,06,25,02,05,16.70
2017,06,25,02,06,16.70
2017,06,25,02,07,16.70
2017,06,25,02,08,16.60
2017,06,25,02,09,16.60
2017,06,25,02,10,16.60
2017,06,25,02,11,16.60
2017,06,25,02,12,16.60
2017,06,25,02,13,16.60
2017,06,25,02,14,16.50
2017,06,25,02,15,16.40
2017,06,25,02,16,16.40
2017,06,25,02,17,16.40
2017,06,25,02,18,16.40
2017,06,25,02,19,16.40
2017,06,25,02,20,16.40
2017,06,25,02,21,16.40
2017,06,25,02,22,16.30
2017,06,25,02,23,16.30
2017,06,25,02,24,16.30
2017,06,25,02,25,16.30
2017,06,25,02,26,16.30
2017,06,25,02,27,16.20
2017,06,25,02,28,16.20
2017,06,25,02,29,16.20
2017,06,25,02,30,16.20
2017,06,25,02,31,16.10
2017,06,25,02,32,16.10
2017,06,25,02,33,16.10
2017,06,25,02,34,16.10
2017,06,25,02,35,16.10
2017,06,25,02,36,16.10
2017,06,25,02,37,16.10
2017,06,25,02,38,16.00
2017,06,25,02,39,15.90
2017,06,25,02,40,15.90
2017,06,25,02,41,15.90
2017,06,25,02,42,15.80
2017,06,25,02,43,15.80
2017,06,25,02,44,15.80
2017,06,25,02,45,15.80
2017,06,25,02,46,15.80
2017,06,25,02,47,15.80
2017,06,25,02,48,15.80
2017,06,25,02,49,15.80
2017,06,25,02,50,15.80
2017,06,25,02,51,15.80
2017,06,25,02,52,15.70
2017,06,25,02,53,15.70
2017,06,25,02,54,15.70
2017,06,25,02,55,15.70
2017,06,25,02,56,15.70
2017,06,25,02,57,15.70
2017,06,25,02,58,15.70
2017,06,25,02,59,15.70
2017,06,25,03,00,15.70
2017,06,25,03,01,15.70
2017,06,25,03,02,15.70
2017,06,25,03,03,15.70
2017,06,25,03,04,15.60
2017,06,25,03,05,15.60
2017,06,25,03,06,15.60
2017,06,25,03,07,15.60
2017,06,25,03,08,15.60
2017,06,25,03,09,15.60
2017,06,25,03,10,15.60
2017,06,25,03,11,15.60
2017,06,25,03,12,15.50
2017,06,25,03,13,15.50
2017,06,25,03,14,15.50
2017,06,25,03,15,15.50
2017,06,25,03,16,15.50
2017,06,25,03,17,15.50
2017,06,25,03,18,15.50
2017,06,25,03,19,15.40
2017,06,25,03,20,15.40
2017,06,25,03,21,15.40
2017,06,25,03,22,15.40
2017,06,25,03,23,15.40
2017,06,25,03,24,15.40
2017,06,25,03,25,15.40
2017,06,25,03,26,15.40
2017,06,25,03,27,15.40
2017,06,25,03,28,15.40
2017,06,25,03,29,15.40
2017,06,25,03,30,15.40
2017,06,25,03,31,15.30
2017,06,25,03,32,15.30
2017,06,25,03,33,15.40
2017,06,25,03,34,15.30
2017,06,25,03,35,15.30
2017,06,25,03,36,15.30
2017,06,25,03,37,15.30
2017,06,25,03,38,15.30
2017,06,25,03,39,15.30
2017,06,25,03,40,15.30
2017,06,25,03,41,15.30
2017,06,25,03,42,15.30
2017,06,25,03,43,15.30
2017,06,25,03,44,15.30
2017,06,25,03,45,15.30
2017,06,25,03,46,15.30
2017,06,25,03,47,15.30
2017,06,25,03,48,15.30
2017,06,25,03,49,15.30
2017,06,25,03,50,15.30
2017,06,25,03,51,15.30
2017,06,25,03,52,15.30
2017,06,25,03,53,15.30
2017,06,25,03,54,15.30
2017,06,25,03,55,15.30
2017,06,25,03,56,15.30
2017,06,25,03,57,15.30
2017,06,25,03,58,15.30
2017,06,25,03,59,15.30
2017,06,25,04,00,15.30
2017,06,25,04,01,15.30
2017,06,25,04,02,15.30
2017,06,25,04,03,15.30
2017,06,25,04,04,15.30
2017,06,25,04,05,15.30
2017,06,25,04,06,15.30
2017,06,25,04,07,15.30
2017,06,25,04,08,15.30
2017,06,25,04,09,15.30
2017,06,25,04,10,15.30
2017,06,25,04,11,15.30
2017,06,25,04,12,15.30
2017,06,25,04,13,15.30
2017,06,25,04,14,15.30
2017,06,25,04,15,15.20
2017,06,25,04,16,15.20
2017,06,25,04,17,15.20
2017,06,25,04,18,15.20
2017,06,25,04,19,15.20
2017,06,25,04,20,15.20
2017,06,25,04,21,15.20
2017,06,25,04,22,15.10
2017,06,25,04,23,15.10
2017,06,25,04,24,15.10
2017,06,25,04,25,15.10
2017,06,25,04,26,15.00
2017,06,25,04,27,15.00
2017,06,25,04,28,15.00
2017,06,25,04,29,14.90
2017,06,25,04,30,14.90
2017,06,25,04,31,14.90
2017,06,25,04,32,14.90
2017,06,25,04,33,14.80
2017,06,25,04,34,14.80
2017,06,25,04,35,14.80
2017,06,25,04,36,14.80
2017,06,25,04,37,14.80
2017,06,25,04,38,14.80
2017,06,25,04,39,14.80
2017,06,25,04,40,14.80
2017,06,25,04,41,14.80
2017,06,25,04,42,14.70
2017,06,25,04,43,14.70
2017,06,25,04,44,14.70
2017,06,25,04,45,14.70
2017,06,25,04,46,14.70
2017,06,25,04,47,14.70
2017,06,25,04,48,14.70
2017,06,25,04,49,14.70
2017,06,25,04,50,14.60
2017,06,25,04,51,14.60
2017,06,25,04,52,14.60
2017,06,25,04,53,14.60
2017,06,25,04,54,14.60
2017,06,25,04,55,14.60
2017,06,25,04,56,14.60
2017,06,25,04,57,14.60
2017,06,25,04,58,14.60
2017,06,25,04,59,14.60
2017,06,25,05,00,14.50
2017,06,25,05,01,14.50
2017,06,25,05,02,14.50
2017,06,25,05,03,14.50
2017,06,25,05,04,14.50
2017,06,25,05,05,14.50
2017,06,25,05,06,14.50
2017,06,25,05,07,14.50
2017,06,25,05,08,14.50
2017,06,25,05,09,14.50
2017,06,25,05,10,14.50
2017,06,25,05,11,14.50
2017,06,25,05,12,14.50
2017,06,25,05,13,14.50
2017,06,25,05,14,14.50
2017,06,25,05,15,14.50
2017,06,25,05,16,14.50
2017,06,25,05,17,14.50
2017,06,25,05,18,14.50
2017,06,25,05,19,14.50
2017,06,25,05,20,14.50
2017,06,25,05,21,14.40
2017,06,25,05,22,14.40
2017,06,25,05,23,14.40
2017,06,25,05,24,14.40
2017,06,25,05,25,14.40
2017,06,25,05,26,14.40
2017,06,25,05,27,14.40
2017,06,25,05,28,14.40
2017,06,25,05,29,14.40
2017,06,25,05,30,14.40
2017,06,25,05,31,14.40
2017,06,25,05,32,14.40
2017,06,25,05,33,14.40
2017,06,25,05,34,14.40
2017,06,25,05,35,14.50
2017,06,25,05,36,14.50
2017,06,25,05,37,14.50
2017,06,25,05,38,14.60
2017,06,25,05,39,14.60
2017,06,25,05,40,14.60
2017,06,25,05,41,14.60
2017,06,25,05,42,14.70
2017,06,25,05,43,14.70
2017,06,25,05,44,14.80
2017,06,25,05,45,14.80
2017,06,25,05,46,14.80
2017,06,25,05,47,14.90
2017,06,25,05,48,14.90
2017,06,25,05,49,14.90
2017,06,25,05,50,14.90
2017,06,25,05,51,14.90
2017,06,25,05,52,15.00
2017,06,25,05,53,15.00
2017,06,25,05,54,15.00
2017,06,25,05,55,15.00
2017,06,25,05,56,15.10
2017,06,25,05,57,15.10
2017,06,25,05,58,15.10
2017,06,25,05,59,15.20
2017,06,25,06,00,15.20
2017,06,25,06,01,15.20
2017,06,25,06,02,15.30
2017,06,25,06,03,15.30
2017,06,25,06,04,15.30
2017,06,25,06,05,15.30
2017,06,25,06,06,15.30
2017,06,25,06,07,15.30
2017,06,25,06,08,15.40
2017,06,25,06,09,15.40
2017,06,25,06,10,15.40
2017,06,25,06,11,15.50
2017,06,25,06,12,15.50
2017,06,25,06,13,15.50
2017,06,25,06,14,15.60
2017,06,25,06,15,15.60
2017,06,25,06,16,15.60
2017,06,25,06,17,15.70
2017,06,25,06,18,15.70
2017,06,25,06,19,15.80
2017,06,25,06,20,15.90
2017,06,25,06,21,16.00
2017,06,25,06,22,16.10
2017,06,25,06,23,16.30
2017,06,25,06,24,16.30
2017,06,25,06,25,16.50
2017,06,25,06,26,16.60
2017,06,25,06,27,16.70
2017,06,25,06,28,16.80
2017,06,25,06,29,16.90
2017,06,25,06,30,17.00
2017,06,25,06,31,17.10
2017,06,25,06,32,17.30
2017,06,25,06,33,17.40
2017,06,25,06,34,17.50
2017,06,25,06,35,17.60
2017,06,25,06,36,17.70
2017,06,25,06,37,17.80
2017,06,25,06,38,17.80
2017,06,25,06,39,17.90
2017,06,25,06,40,17.90
2017,06,25,06,41,18.00
2017,06,25,06,42,18.10
2017,06,25,06,43,18.20
2017,06,25,06,44,18.20
2017,06,25,06,45,18.20
2017,06,25,06,46,18.30
2017,06,25,06,47,18.40
2017,06,25,06,48,18.40
2017,06,25,06,49,18.50
2017,06,25,06,50,18.50
2017,06,25,06,51,18.60
2017,06,25,06,52,18.60
2017,06,25,06,53,18.60
2017,06,25,06,54,18.70
2017,06,25,06,55,18.70
2017,06,25,06,56,18.60
2017,06,25,06,57,18.60
2017,06,25,06,58,18.60
2017,06,25,06,59,18.60
2017,06,25,07,00,18.60
2017,06,25,07,01,18.60
2017,06,25,07,02,18.70
2017,06,25,07,03,18.80
2017,06,25,07,04,18.90
2017,06,25,07,05,19.00
2017,06,25,07,06,19.10
2017,06,25,07,07,19.20
2017,06,25,07,08,19.30
2017,06,25,07,09,19.50
2017,06,25,07,10,19.60
2017,06,25,07,11,19.70
2017,06,25,07,12,19.80
2017,06,25,07,13,19.90
2017,06,25,07,14,19.90
2017,06,25,07,15,19.90
2017,06,25,07,16,19.90
2017,06,25,07,17,19.90
2017,06,25,07,18,19.90
2017,06,25,07,19,19.90
2017,06,25,07,20,19.90
2017,06,25,07,21,20.10
2017,06,25,07,22,20.10
2017,06,25,07,23,20.10
2017,06,25,07,24,20.10
2017,06,25,07,25,20.20
2017,06,25,07,26,20.20
2017,06,25,07,27,20.30
2017,06,25,07,28,20.40
2017,06,25,07,29,20.50
2017,06,25,07,30,20.50
2017,06,25,07,31,20.60
2017,06,25,07,32,20.60
2017,06,25,07,33,20.70
2017,06,25,07,34,20.70
2017,06,25,07,35,20.70
2017,06,25,07,36,20.80
2017,06,25,07,37,20.80
2017,06,25,07,38,20.80
2017,06,25,07,39,20.80
2017,06,25,07,40,20.80
2017,06,25,07,41,20.80
2017,06,25,07,42,20.90
2017,06,25,07,43,20.90
2017,06,25,07,44,20.90
2017,06,25,07,45,21.00
2017,06,25,07,46,21.00
2017,06,25,07,47,21.00
2017,06,25,07,48,21.10
2017,06,25,07,49,21.10
2017,06,25,07,50,21.10
2017,06,25,07,51,21.20
2017,06,25,07,52,21.20
2017,06,25,07,53,21.30
2017,06,25,07,54,21.30
2017,06,25,07,55,21.30
2017,06,25,07,56,21.30
2017,06,25,07,57,21.40
2017,06,25,07,58,21.40
2017,06,25,07,59,21.50
2017,06,25,08,00,21.60
2017,06,25,08,01,21.60
2017,06,25,08,02,21.70
2017,06,25,08,03,21.80
2017,06,25,08,04,22.00
2017,06,25,08,05,22.10
2017,06,25,08,06,22.20
2017,06,25,08,07,22.40
2017,06,25,08,08,22.60
2017,06,25,08,09,22.70
2017,06,25,08,10,22.80
2017,06,25,08,11,22.90
2017,06,25,08,12,23.00
2017,06,25,08,13,23.10
2017,06,25,08,14,23.20
2017,06,25,08,15,23.30
2017,06,25,08,16,23.50
2017,06,25,08,17,23.60
2017,06,25,08,18,23.70
2017,06,25,08,19,23.90
2017,06,25,08,20,23.90
2017,06,25,08,21,24.10
2017,06,25,08,22,24.10
2017,06,25,08,23,24.20
2017,06,25,08,24,24.30
2017,06,25,08,25,24.30
2017,06,25,08,26,24.40
2017,06,25,08,27,24.40
2017,06,25,08,28,24.50
2017,06,25,08,29,24.50
2017,06,25,08,30,24.60
2017,06,25,08,31,24.60
2017,06,25,08,32,24.70
2017,06,25,08,33,24.70
2017,06,25,08,34,24.70
2017,06,25,08,35,24.80
2017,06,25,08,36,24.80
2017,06,25,08,37,24.80
2017,06,25,08,38,24.80
2017,06,25,08,39,24.90
2017,06,25,08,40,24.90
2017,06,25,08,41,24.90
2017,06,25,08,42,25.00
2017,06,25,08,43,25.00
2017,06,25,08,44,25.10
2017,06,25,08,45,25.10
2017,06,25,08,46,25.20
2017,06,25,08,47,25.20
2017,06,25,08,48,25.20
2017,06,25,08,49,25.20
2017,06,25,08,50,25.20
2017,06,25,08,51,25.30
2017,06,25,08,52,25.30
2017,06,25,08,53,25.30
2017,06,25,08,54,25.30
2017,06,25,08,55,25.30
2017,06,25,08,56,25.30
2017,06,25,08,57,25.40
2017,06,25,08,58,25.40
2017,06,25,08,59,25.40
2017,06,25,09,00,25.40
2017,06,25,09,01,25.40
2017,06,25,09,02,25.40
2017,06,25,09,03,25.40
2017,06,25,09,04,25.50
2017,06,25,09,05,25.50
2017,06,25,09,06,25.50
2017,06,25,09,07,25.60
2017,06,25,09,08,25.60
2017,06,25,09,09,25.70
2017,06,25,09,10,25.70
2017,06,25,09,11,25.80
2017,06,25,09,12,25.80
2017,06,25,09,13,25.80
2017,06,25,09,14,25.80
2017,06,25,09,15,25.90
2017,06,25,09,16,25.90
2017,06,25,09,17,25.90
2017,06,25,09,18,25.90
2017,06,25,09,19,25.90
2017,06,25,09,20,25.90
2017,06,25,09,21,25.90
2017,06,25,09,22,26.00
2017,06,25,09,23,26.00
2017,06,25,09,24,26.00
2017,06,25,09,25,26.00
2017,06,25,09,26,25.90
2017,06,25,09,27,26.00
2017,06,25,09,28,26.00
2017,06,25,09,29,26.00
2017,06,25,09,30,26.00
2017,06,25,09,31,26.00
2017,06,25,09,32,26.00
2017,06,25,09,33,25.90
2017,06,25,09,34,25.90
2017,06,25,09,35,25.90
2017,06,25,09,36,26.00
2017,06,25,09,37,26.00
2017,06,25,09,38,26.00
2017,06,25,09,39,26.10
2017,06,25,09,40,26.20
2017,06,25,09,41,26.30
2017,06,25,09,42,26.40
2017,06,25,09,43,26.40
2017,06,25,09,44,26.50
2017,06,25,09,45,26.60
2017,06,25,09,46,26.60
2017,06,25,09,47,26.70
2017,06,25,09,48,26.70
2017,06,25,09,49,26.70
2017,06,25,09,50,26.70
2017,06,25,09,51,26.70
2017,06,25,09,52,26.70
2017,06,25,09,53,26.60
2017,06,25,09,54,26.60
2017,06,25,09,55,26.60
2017,06,25,09,56,26.60
2017,06,25,09,57,26.60
2017,06,25,09,58,26.60
2017,06,25,09,59,26.70
2017,06,25,10,00,26.70
2017,06,25,10,01,26.70
2017,06,25,10,02,26.80
2017,06,25,10,03,26.80
2017,06,25,10,04,26.90
2017,06,25,10,05,26.90
2017,06,25,10,06,27.00
2017,06,25,10,07,27.10
2017,06,25,10,08,27.20
2017,06,25,10,09,27.30
2017,06,25,10,10,27.30
2017,06,25,10,11,27.30
2017,06,25,10,12,27.30
2017,06,25,10,13,27.30
2017,06,25,10,14,27.30
2017,06,25,10,15,27.30
2017,06,25,10,16,27.30
2017,06,25,10,17,27.30
2017,06,25,10,18,27.30
2017,06,25,10,19,27.30
2017,06,25,10,20,27.30
2017,06,25,10,21,27.10
2017,06,25,10,22,27.10
2017,06,25,10,23,27.00
2017,06,25,10,24,26.90
2017,06,25,10,25,26.90
2017,06,25,10,26,27.00
2017,06,25,10,27,27.10
2017,06,25,10,28,27.10
2017,06,25,10,29,27.10
2017,06,25,10,30,27.10
2017,06,25,10,31,27.00
2017,06,25,10,32,26.90
2017,06,25,10,33,26.90
2017,06,25,10,34,26.70
2017,06,25,10,35,26.70
2017,06,25,10,36,26.70
2017,06,25,10,37,26.70
2017,06,25,10,38,26.70
2017,06,25,10,39,26.80
2017,06,25,10,40,26.80
2017,06,25,10,41,26.90
2017,06,25,10,42,27.00
2017,06,25,10,43,27.10
2017,06,25,10,44,27.10
2017,06,25,10,45,27.20
2017,06,25,10,46,27.20
2017,06,25,10,47,27.30
2017,06,25,10,48,27.30
2017,06,25,10,49,27.30
2017,06,25,10,50,27.30
2017,06,25,10,51,27.30
2017,06,25,10,52,27.30
2017,06,25,10,53,27.30
2017,06,25,10,54,27.30
2017,06,25,10,55,27.30
2017,06,25,10,56,27.30
2017,06,25,10,57,27.40
2017,06,25,10,58,27.40
2017,06,25,10,59,27.40
2017,06,25,11,00,27.40
2017,06,25,11,01,27.40
2017,06,25,11,02,27.40
2017,06,25,11,03,27.40
2017,06,25,11,04,27.40
2017,06,25,11,05,27.50
2017,06,25,11,06,27.60
2017,06,25,11,07,27.60
2017,06,25,11,08,27.40
2017,06,25,11,09,27.40
2017,06,25,11,10,27.40
2017,06,25,11,11,27.40
2017,06,25,11,12,27.30
2017,06,25,11,13,27.20
2017,06,25,11,14,27.00
2017,06,25,11,15,26.90
2017,06,25,11,16,27.00
2017,06,25,11,17,27.10
2017,06,25,11,18,27.10
2017,06,25,11,19,27.10
2017,06,25,11,20,27.10
2017,06,25,11,21,27.20
2017,06,25,11,22,27.30
2017,06,25,11,23,27.30
2017,06,25,11,24,27.30
2017,06,25,11,25,27.30
2017,06,25,11,26,27.30
2017,06,25,11,27,27.30
2017,06,25,11,28,27.30
2017,06,25,11,29,27.40
2017,06,25,11,30,27.40
2017,06,25,11,31,27.40
2017,06,25,11,32,27.30
2017,06,25,11,33,27.30
2017,06,25,11,34,27.30
2017,06,25,11,35,27.30
2017,06,25,11,36,27.30
2017,06,25,11,37,27.30
2017,06,25,11,38,27.40
2017,06,25,11,39,27.40
2017,06,25,11,40,27.40
2017,06,25,11,41,27.30
2017,06,25,11,42,27.30
2017,06,25,11,43,27.30
2017,06,25,11,44,27.30
2017,06,25,11,45,27.30
2017,06,25,11,46,27.20
2017,06,25,11,47,27.20
2017,06,25,11,48,27.20
2017,06,25,11,49,27.20
2017,06,25,11,50,27.30
2017,06,25,11,51,27.30
2017,06,25,11,52,27.30
2017,06,25,11,53,27.30
2017,06,25,11,54,27.30
2017,06,25,11,55,27.30
2017,06,25,11,56,27.30
2017,06,25,11,57,27.30
2017,06,25,11,58,27.30
2017,06,25,11,59,27.30
2017,06,25,12,00,27.30
2017,06,25,12,01,27.30
2017,06,25,12,02,27.30
2017,06,25,12,03,27.30
2017,06,25,12,04,27.40
2017,06,25,12,05,27.50
2017,06,25,12,06,27.60
2017,06,25,12,07,27.70
2017,06,25,12,08,27.70
2017,06,25,12,09,27.80
2017,06,25,12,10,27.80
2017,06,25,12,11,27.70
2017,06,25,12,12,27.70
2017,06,25,12,13,27.60
2017,06,25,12,14,27.50
2017,06,25,12,15,27.40
2017,06,25,12,16,27.40
2017,06,25,12,17,27.40
2017,06,25,12,18,27.50
2017,06,25,12,19,27.60
2017,06,25,12,20,27.60
2017,06,25,12,21,27.70
2017,06,25,12,22,27.70
2017,06,25,12,23,27.70
2017,06,25,12,24,27.80
2017,06,25,12,25,27.90
2017,06,25,12,26,28.00
2017,06,25,12,27,28.00
2017,06,25,12,28,28.00
2017,06,25,12,29,28.00
2017,06,25,12,30,28.00
2017,06,25,12,31,28.00
2017,06,25,12,32,28.00
2017,06,25,12,33,28.00
2017,06,25,12,34,28.00
2017,06,25,12,35,28.00
2017,06,25,12,36,28.00
2017,06,25,12,37,28.10
2017,06,25,12,38,28.20
2017,06,25,12,39,28.20
2017,06,25,12,40,28.30
2017,06,25,12,41,28.30
2017,06,25,12,42,28.40
2017,06,25,12,43,28.50
2017,06,25,12,44,28.60
2017,06,25,12,45,28.70
2017,06,25,12,46,28.90
2017,06,25,12,47,28.90
2017,06,25,12,48,28.90
2017,06,25,12,49,28.90
2017,06,25,12,50,28.90
2017,06,25,12,51,28.90
2017,06,25,12,52,29.10
2017,06,25,12,53,29.10
2017,06,25,12,54,29.10
2017,06,25,12,55,29.10
2017,06,25,12,56,29.10
2017,06,25,12,57,29.00
2017,06,25,12,58,28.90
2017,06,25,12,59,28.90
2017,06,25,13,00,28.90
2017,06,25,13,01,28.90
2017,06,25,13,02,28.90
2017,06,25,13,03,28.80
2017,06,25,13,04,28.70
2017,06,25,13,05,28.70
2017,06,25,13,06,28.70
2017,06,25,13,07,28.70
2017,06,25,13,08,28.70
2017,06,25,13,09,28.70
2017,06,25,13,10,28.70
2017,06,25,13,11,28.70
2017,06,25,13,12,28.70
2017,06,25,13,13,28.70
2017,06,25,13,14,28.70
2017,06,25,13,15,28.70
2017,06,25,13,16,28.60
2017,06,25,13,17,28.60
2017,06,25,13,18,28.60
2017,06,25,13,19,28.60
2017,06,25,13,20,28.60
2017,06,25,13,21,28.70
2017,06,25,13,22,28.70
2017,06,25,13,23,28.80
2017,06,25,13,24,28.90
2017,06,25,13,25,28.90
2017,06,25,13,26,28.90
2017,06,25,13,27,29.00
2017,06,25,13,28,29.10
2017,06,25,13,29,29.10
2017,06,25,13,30,29.20
2017,06,25,13,31,29.30
2017,06,25,13,32,29.40
2017,06,25,13,33,29.50
2017,06,25,13,34,29.40
2017,06,25,13,35,29.40
2017,06,25,13,36,29.40
2017,06,25,13,37,29.40
2017,06,25,13,38,29.50
2017,06,25,13,39,29.50
2017,06,25,13,40,29.60
2017,06,25,13,41,29.80
2017,06,25,13,42,29.80
2017,06,25,13,43,29.90
2017,06,25,13,44,29.90
2017,06,25,13,45,29.90
2017,06,25,13,46,29.90
2017,06,25,13,47,29.90
2017,06,25,13,48,29.90
2017,06,25,13,49,29.90
2017,06,25,13,50,29.90
2017,06,25,13,51,29.90
2017,06,25,13,52,29.90
2017,06,25,13,53,29.90
2017,06,25,13,54,30.10
2017,06,25,13,55,30.10
2017,06,25,13,56,30.10
2017,06,25,13,57,30.20
2017,06,25,13,58,30.30
2017,06,25,13,59,30.30
2017,06,25,14,00,30.40
2017,06,25,14,01,30.40
2017,06,25,14,02,30.40
2017,06,25,14,03,30.60
2017,06,25,14,04,30.60
2017,06,25,14,05,30.60
2017,06,25,14,06,30.70
2017,06,25,14,07,30.70
2017,06,25,14,08,30.70
2017,06,25,14,09,30.70
2017,06,25,14,10,30.70
2017,06,25,14,11,30.70
2017,06,25,14,12,30.70
2017,06,25,14,13,30.70
2017,06,25,14,14,30.70
2017,06,25,14,15,30.80
2017,06,25,14,16,30.80
2017,06,25,14,17,30.80
2017,06,25,14,18,30.80
2017,06,25,14,19,30.70
2017,06,25,14,20,30.80
2017,06,25,14,21,30.80
2017,06,25,14,22,30.90
2017,06,25,14,23,30.90
2017,06,25,14,24,30.90
2017,06,25,14,25,30.90
2017,06,25,14,26,30.90
2017,06,25,14,27,30.80
2017,06,25,14,28,30.70
2017,06,25,14,29,30.60
2017,06,25,14,30,30.40
2017,06,25,14,31,30.40
2017,06,25,14,32,30.40
2017,06,25,14,33,30.50
2017,06,25,14,34,30.50
2017,06,25,14,35,30.30
2017,06,25,14,36,30.40
2017,06,25,14,37,30.40
2017,06,25,14,38,30.60
2017,06,25,14,39,30.70
2017,06,25,14,40,30.70
2017,06,25,14,41,30.60
2017,06,25,14,42,30.60
2017,06,25,14,43,30.60
2017,06,25,14,44,30.60
2017,06,25,14,45,30.60
2017,06,25,14,46,30.60
2017,06,25,14,47,30.70
2017,06,25,14,48,30.70
2017,06,25,14,49,30.70
2017,06,25,14,50,30.80
2017,06,25,14,51,30.80
2017,06,25,14,52,30.80
2017,06,25,14,53,30.90
2017,06,25,14,54,30.90
2017,06,25,14,55,31.00
2017,06,25,14,56,31.00
2017,06,25,14,57,31.10
2017,06,25,14,58,31.10
2017,06,25,14,59,31.10
2017,06,25,15,00,31.00
2017,06,25,15,01,30.80
2017,06,25,15,02,30.50
2017,06,25,15,03,30.10
2017,06,25,15,04,29.90
2017,06,25,15,05,29.80
2017,06,25,15,06,29.60
2017,06,25,15,07,29.50
2017,06,25,15,08,29.40
2017,06,25,15,09,29.20
2017,06,25,15,10,29.00
2017,06,25,15,11,28.70
2017,06,25,15,12,28.50
2017,06,25,15,13,28.30
2017,06,25,15,14,28.10
2017,06,25,15,15,28.00
2017,06,25,15,16,27.90
2017,06,25,15,17,27.70
2017,06,25,15,18,27.50
2017,06,25,15,19,27.30
2017,06,25,15,20,27.20
2017,06,25,15,21,27.00
2017,06,25,15,22,26.70
2017,06,25,15,23,26.60
2017,06,25,15,24,26.60
2017,06,25,15,25,26.50
2017,06,25,15,26,26.30
2017,06,25,15,27,26.30
2017,06,25,15,28,26.30
2017,06,25,15,29,26.30
2017,06,25,15,30,26.30
2017,06,25,15,31,26.20
2017,06,25,15,32,26.00
2017,06,25,15,33,25.90
2017,06,25,15,34,25.70
2017,06,25,15,35,25.60
2017,06,25,15,36,25.50
2017,06,25,15,37,25.40
2017,06,25,15,38,25.30
2017,06,25,15,39,25.30
2017,06,25,15,40,25.30
2017,06,25,15,41,25.30
2017,06,25,15,42,25.40
2017,06,25,15,43,25.40
2017,06,25,15,44,25.50
2017,06,25,15,45,25.50
2017,06,25,15,46,25.60
2017,06,25,15,47,25.60
2017,06,25,15,48,25.60
2017,06,25,15,49,25.60
2017,06,25,15,50,25.60
2017,06,25,15,51,25.60
2017,06,25,15,52,25.60
2017,06,25,15,53,25.60
2017,06,25,15,54,25.60
2017,06,25,15,55,25.70
2017,06,25,15,56,25.70
2017,06,25,15,57,25.80
2017,06,25,15,58,25.90
2017,06,25,15,59,26.00
2017,06,25,16,00,26.20
2017,06,25,16,01,26.40
2017,06,25,16,02,26.50
2017,06,25,16,03,26.70
2017,06,25,16,04,26.80
2017,06,25,16,05,26.90
2017,06,25,16,06,27.00
2017,06,25,16,07,27.10
2017,06,25,16,08,27.20
2017,06,25,16,09,27.20
2017,06,25,16,10,27.30
2017,06,25,16,11,27.30
2017,06,25,16,12,27.30
2017,06,25,16,13,27.30
2017,06,25,16,14,27.30
2017,06,25,16,15,27.40
2017,06,25,16,16,27.40
2017,06,25,16,17,27.40
2017,06,25,16,18,27.30
2017,06,25,16,19,27.40
2017,06,25,16,20,27.40
2017,06,25,16,21,27.40
2017,06,25,16,22,27.40
2017,06,25,16,23,27.40
2017,06,25,16,24,27.40
2017,06,25,16,25,27.40
2017,06,25,16,26,27.50
2017,06,25,16,27,27.60
2017,06,25,16,28,27.70
2017,06,25,16,29,27.80
2017,06,25,16,30,27.80
2017,06,25,16,31,27.90
2017,06,25,16,32,28.00
2017,06,25,16,33,28.10
2017,06,25,16,34,28.20
2017,06,25,16,35,28.20
2017,06,25,16,36,28.20
2017,06,25,16,37,28.20
2017,06,25,16,38,28.20
2017,06,25,16,39,28.20
2017,06,25,16,40,28.20
2017,06,25,16,41,28.20
2017,06,25,16,42,28.20
2017,06,25,16,43,28.10
2017,06,25,16,44,28.00
2017,06,25,16,45,28.00
2017,06,25,16,46,27.90
2017,06,25,16,47,27.80
2017,06,25,16,48,27.70
2017,06,25,16,49,27.70
2017,06,25,16,50,27.60
2017,06,25,16,51,27.40
2017,06,25,16,52,27.30
2017,06,25,16,53,27.20
2017,06,25,16,54,27.10
2017,06,25,16,55,27.00
2017,06,25,16,56,26.80
2017,06,25,16,57,26.70
2017,06,25,16,58,26.70
2017,06,25,16,59,26.60
2017,06,25,17,00,26.60
2017,06,25,17,01,26.60
2017,06,25,17,02,26.60
2017,06,25,17,03,26.40
2017,06,25,17,04,26.40
2017,06,25,17,05,26.40
2017,06,25,17,06,26.30
2017,06,25,17,07,26.20
2017,06,25,17,08,26.10
2017,06,25,17,09,26.10
2017,06,25,17,10,26.00
2017,06,25,17,11,26.00
2017,06,25,17,12,26.00
2017,06,25,17,13,26.00
2017,06,25,17,14,26.00
2017,06,25,17,15,26.10
2017,06,25,17,16,26.10
2017,06,25,17,17,26.20
2017,06,25,17,18,26.10
2017,06,25,17,19,26.10